Eveleth, MN

2:26 PM CST on January 24, 2017 (GMT -0600)
Eveleth-Virginia Municipal

Weather History for KEVM - November, 2012

Change the Weather History Date:

Thursday, November 1, 2012

  Actual Average Record
Temperature  
Mean Temperature 34 °F -  
Max Temperature 37 °F 41 °F 62 °F (2001)
Min Temperature 32 °F 26 °F 12 °F (2014)
Degree Days  
Heating Degree Days 30    
Moisture  
Dew Point 29 °F    
Average Humidity 80    
Maximum Humidity 93    
Minimum Humidity 56    
Precipitation  
Precipitation 0.00 in - - ()
Sea Level Pressure  
Sea Level Pressure 29.97 in    
Wind  
Wind Speed 9 mph (NNW)    
Max Wind Speed 17 mph    
Max Gust Speed 24 mph    
Visibility 10 miles    
Events Snow    
Averages and records for this station are not official NWS values.
T = Trace of Precipitation, MM = Missing Value Source: NWS Daily Summary

Daily Weather History Graph

Daily Weather History Graph

Search for Another Location

Airport or City:

Trip Planner

Search our weather history database for the weather conditions in past years. The results will help you decide how hot, cold, wet, or windy it might be!

Date:

Astronomy

Nov. 01, 2012 Rise Set
Actual Time 7:54 AM CDT 5:52 PM CDT
Civil Twilight 7:22 AM CDT 6:24 PM CDT
Nautical Twilight 6:45 AM CDT 7:00 PM CDT
Astronomical Twilight 6:10 AM CDT 7:36 PM CDT
Moon 7:40 PM CDT (11/1) 10:36 AM CDT (11/1)
Length of Visible Light 11h 01m
Length of Day
9h 57m
Waning Gibbous, 93% of the Moon is Illuminated
Nov 1
Waning Gibbous
Nov 6
Last Quarter
Nov 13
New
Nov 20
First Quarter
Nov 28
Full

Hourly Weather History & Observations

Time (CDT) Temp. Windchill Dew Point Humidity Pressure Visibility Wind Dir Wind Speed Gust Speed Precip Events Conditions
12:09 AM 37.4 °F - 23.0 °F 56% 29.90 in 10.0 mi Calm Calm - N/A   Overcast
12:29 AM 37.4 °F 33.8 °F 23.0 °F 56% 29.89 in 10.0 mi WNW 4.6 mph - N/A   Overcast
12:49 AM 37.4 °F 33.8 °F 26.6 °F 65% 29.90 in 10.0 mi NNW 4.6 mph - N/A   Overcast
1:10 AM 37.4 °F 33.8 °F 28.4 °F 70% 29.90 in 10.0 mi NNW 4.6 mph - N/A   Overcast
1:29 AM 37.4 °F 32.8 °F 30.2 °F 75% 29.91 in 10.0 mi West 5.8 mph - N/A   Overcast
2:09 AM 35.6 °F 29.2 °F 30.2 °F 81% 29.91 in 10.0 mi WNW 8.1 mph - N/A   Overcast
2:29 AM 35.6 °F 27.5 °F 30.2 °F 81% 29.91 in 10.0 mi NW 11.5 mph 16.1 mph N/A   Overcast
3:09 AM 37.4 °F 31.4 °F 32.0 °F 81% 29.91 in 10.0 mi NNW 8.1 mph 23.0 mph N/A   Overcast
3:30 AM 35.6 °F 25.5 °F 32.0 °F 87% 29.91 in 10.0 mi NNW 17.3 mph 23.0 mph N/A   Overcast
3:49 AM 35.6 °F 27.1 °F 32.0 °F 87% 29.91 in 10.0 mi NW 12.7 mph 18.4 mph N/A   Overcast
4:09 AM 35.6 °F 28.0 °F 32.0 °F 87% 29.91 in 10.0 mi NW 10.4 mph 16.1 mph N/A   Overcast
4:30 AM 37.4 °F 30.8 °F 35.6 °F 93% 29.91 in 10.0 mi NNW 9.2 mph - N/A   Overcast
5:09 AM 35.6 °F 28.0 °F 33.8 °F 93% 29.91 in 5.0 mi NW 10.4 mph - N/A   Light Drizzle
5:30 AM 37.4 °F 28.9 °F 35.6 °F 93% 29.91 in 10.0 mi NW 13.8 mph 20.7 mph N/A   Overcast
5:49 AM 37.4 °F 29.3 °F 35.6 °F 93% 29.92 in 10.0 mi NW 12.7 mph 20.7 mph N/A   Overcast
6:09 AM 37.4 °F 29.8 °F 33.8 °F 87% 29.91 in 10.0 mi NW 11.5 mph 16.1 mph N/A   Overcast
6:30 AM 37.4 °F 30.8 °F 33.8 °F 87% 29.91 in 10.0 mi NW 9.2 mph 19.6 mph N/A   Overcast
6:49 AM 37.4 °F 28.9 °F 33.8 °F 87% 29.92 in 10.0 mi NW 13.8 mph 19.6 mph N/A   Overcast
7:30 AM 37.4 °F 29.8 °F 32.0 °F 81% 29.93 in 10.0 mi NNW 11.5 mph 16.1 mph N/A   Overcast
7:49 AM 35.6 °F 26.6 °F 32.0 °F 87% 29.93 in 10.0 mi NW 13.8 mph 23.0 mph N/A   Overcast
8:30 AM 35.6 °F 27.5 °F 32.0 °F 87% 29.94 in 7.0 mi NW 11.5 mph 17.3 mph N/A Snow Light Snow
8:49 AM 33.8 °F 24.8 °F 32.0 °F 93% 29.95 in 2.5 mi NW 12.7 mph - N/A Snow Light Snow
9:09 AM 33.8 °F 25.3 °F 32.0 °F 93% 29.95 in 4.0 mi NW 11.5 mph 18.4 mph N/A Snow Light Snow
9:30 AM 33.8 °F 23.5 °F 32.0 °F 93% 29.96 in 7.0 mi NW 16.1 mph 24.2 mph N/A Snow Light Snow
10:09 AM 35.6 °F 26.2 °F 30.2 °F 81% 29.96 in 10.0 mi NW 15.0 mph 21.9 mph N/A   Overcast
10:30 AM 35.6 °F 27.1 °F 30.2 °F 81% 29.96 in 10.0 mi NW 12.7 mph 18.4 mph N/A   Overcast
10:49 AM 35.6 °F 26.2 °F 30.2 °F 81% 29.96 in 10.0 mi NW 15.0 mph 21.9 mph N/A   Overcast
11:09 AM 35.6 °F 28.6 °F 30.2 °F 81% 29.97 in 10.0 mi NW 9.2 mph 17.3 mph N/A   Overcast
11:30 AM 35.6 °F 26.2 °F 30.2 °F 81% 29.97 in 10.0 mi NW 15.0 mph 21.9 mph N/A   Overcast
11:49 AM 35.6 °F 25.5 °F 28.4 °F 75% 29.98 in 10.0 mi NW 17.3 mph 21.9 mph N/A   Overcast
12:10 PM 37.4 °F 27.8 °F 30.2 °F 75% 29.97 in 10.0 mi NW 17.3 mph 24.2 mph N/A   Overcast
12:29 PM 37.4 °F 28.9 °F 30.2 °F 75% 29.97 in 10.0 mi NNW 13.8 mph 21.9 mph N/A   Overcast
1:09 PM 37.4 °F 28.5 °F 28.4 °F 70% 29.98 in 10.0 mi NNW 15.0 mph 20.7 mph N/A   Overcast
1:29 PM 37.4 °F 29.8 °F 28.4 °F 70% 29.97 in 10.0 mi NW 11.5 mph 19.6 mph N/A   Overcast
1:50 PM 37.4 °F 29.8 °F 30.2 °F 75% 29.97 in 10.0 mi NW 11.5 mph - N/A   Overcast
2:09 PM 37.4 °F 30.3 °F 28.4 °F 70% 29.97 in 10.0 mi NNW 10.4 mph 18.4 mph N/A   Overcast
2:29 PM 37.4 °F 29.8 °F 28.4 °F 70% 29.97 in 10.0 mi NW 11.5 mph 16.1 mph N/A   Overcast
2:50 PM 37.4 °F 31.4 °F 28.4 °F 70% 29.97 in 10.0 mi NNW 8.1 mph 17.3 mph N/A   Overcast
3:09 PM 35.6 °F 28.6 °F 26.6 °F 70% 29.97 in 10.0 mi NW 9.2 mph 19.6 mph N/A   Overcast
3:50 PM 35.6 °F 26.6 °F 26.6 °F 70% 29.98 in 10.0 mi NW 13.8 mph 21.9 mph N/A   Overcast
4:09 PM 35.6 °F 28.0 °F 28.4 °F 75% 29.99 in 10.0 mi NW 10.4 mph 18.4 mph N/A   Overcast
4:29 PM 35.6 °F 27.5 °F 28.4 °F 75% 29.99 in 10.0 mi NNW 11.5 mph 16.1 mph N/A   Overcast
4:49 PM 33.8 °F 26.4 °F 26.6 °F 75% 30.00 in 10.0 mi NNW 9.2 mph - N/A   Overcast
5:10 PM 33.8 °F 25.8 °F 26.6 °F 75% 30.01 in 10.0 mi NNW 10.4 mph 17.3 mph N/A   Overcast
5:29 PM 33.8 °F 25.8 °F 26.6 °F 75% 30.02 in 10.0 mi NNW 10.4 mph - N/A   Overcast
5:50 PM 32.0 °F 25.6 °F 26.6 °F 80% 30.02 in 10.0 mi NNW 6.9 mph - N/A   Overcast
6:09 PM 32.0 °F 23.0 °F 26.6 °F 80% 30.02 in 10.0 mi NNW 11.5 mph - N/A   Overcast
6:29 PM 32.0 °F 24.8 °F 26.6 °F 80% 30.02 in 10.0 mi NNW 8.1 mph - N/A   Overcast
6:49 PM - - - N/A% 30.03 in 10.0 mi NNW 6.9 mph - N/A   Overcast
7:10 PM 32.0 °F 24.8 °F 26.6 °F 80% 30.03 in 10.0 mi NNW 8.1 mph - N/A   Overcast
7:29 PM 32.0 °F 26.4 °F 26.6 °F 80% 30.03 in 10.0 mi NNW 5.8 mph - N/A   Overcast
7:49 PM 32.0 °F 26.4 °F 28.4 °F 87% 30.03 in 10.0 mi NNW 5.8 mph - N/A   Overcast
8:10 PM 32.0 °F 24.8 °F 28.4 °F 87% 30.03 in 10.0 mi NNW 8.1 mph - N/A   Overcast
8:29 PM 32.0 °F 24.2 °F 28.4 °F 87% 30.03 in 10.0 mi North 9.2 mph - N/A   Overcast
8:49 PM 32.0 °F 25.6 °F 28.4 °F 87% 30.03 in 10.0 mi NNW 6.9 mph - N/A   Overcast
9:10 PM 32.0 °F 24.8 °F 28.4 °F 87% 30.03 in 10.0 mi North 8.1 mph - N/A   Overcast
9:29 PM 32.0 °F 24.8 °F 26.6 °F 80% 30.04 in 10.0 mi North 8.1 mph - N/A   Overcast
9:49 PM 32.0 °F 24.2 °F 26.6 °F 80% 30.04 in 10.0 mi North 9.2 mph 16.1 mph N/A   Overcast
10:09 PM 32.0 °F 26.4 °F 26.6 °F 80% 30.05 in 10.0 mi NNW 5.8 mph - N/A   Overcast
10:29 PM 32.0 °F 23.0 °F 26.6 °F 80% 30.05 in 10.0 mi NNW 11.5 mph 19.6 mph N/A   Overcast
10:49 PM 32.0 °F 24.8 °F 26.6 °F 80% 30.05 in 10.0 mi North 8.1 mph - N/A   Overcast
11:09 PM 32.0 °F 25.6 °F 26.6 °F 80% 30.06 in 10.0 mi North 6.9 mph - N/A   Mostly Cloudy
11:30 PM 32.0 °F 27.5 °F 24.8 °F 75% 30.06 in 10.0 mi North 4.6 mph - N/A   Scattered Clouds
11:49 PM 32.0 °F - 24.8 °F 75% 30.07 in 10.0 mi Calm Calm - N/A   Scattered Clouds